#timestamp,LO_Frequency,Hit,StdDev 
1561431615.0,286046994.5,Y
1561431615.9,286046994.5,P
1561431635.8,286046997.7,N
1561431655.6,286046998.0,N
1561431675.4,286046997.4,N
1561431695.3,286046995.2,Y
1561431715.1,286046998.7,P
1561431735.8,286047000.6,N
1561431755.7,286047002.2,N
1561431775.5,286047002.3,N
1561431795.4,286047002.5,N
1561431815.2,286047002.6,N
1561431835.0,286047001.7,N
1561431835.9,286047001.7,N
1561431855.8,286047004.0,N
1561431875.6,286047003.6,N
1561431895.4,286047001.5,N
1561431915.3,286047001.7,N
1561431935.1,286047001.8,N
1561431955.9,286047001.5,N
1561431975.7,286047003.6,N
1561431995.5,286047004.1,N
1561432015.4,286047003.6,N
1561432035.2,286047003.5,N
1561432055.0,286047004.4,N
1561432055.9,286047004.4,N
1561432075.8,286047003.4,N
1561432095.6,286047003.6,N
1561432115.5,286047003.8,N
1561432135.3,286047003.6,N
1561432155.1,286047001.3,N
1561432175.9,286047003.9,N
1561432195.7,286047004.4,N
1561432215.5,286047001.7,N
1561432235.4,286047001.3,N
1561432255.5,286047003.0,N
1561432275.3,286047003.5,N
1561432295.1,286047001.3,N
1561432315.9,286047004.0,Y
1561432335.7,286047000.6,P
1561432355.6,286047000.9,N
1561432375.4,286046998.2,N
1561432395.2,286046999.9,N
1561432415.1,286046998.7,N
1561432416.0,286046998.7,N
1561432435.8,286047001.2,N
1561432455.6,286046998.1,N
1561432475.5,286046999.9,N
1561432495.3,286047000.8,N
1561432515.2,286046998.3,N
1561432535.9,286047000.5,N
1561432555.7,286047000.2,N
1561432575.6,286047000.8,N
1561432595.4,286046998.7,N
1561432615.2,286046998.1,N
1561432635.1,286046998.9,N
1561432636.0,286046998.9,N
1561432655.8,286047000.6,N
1561432675.7,286047001.0,N
1561432695.5,286046998.2,N
1561432715.3,286046998.5,N
1561432735.2,286046998.9,N
1561432755.0,286047000.4,N
1561432755.9,286047000.4,N
1561432775.8,286047000.4,N
1561432795.6,286047002.4,N
1561432815.4,286047000.0,N
1561432835.3,286047000.4,N
1561432855.1,286047000.7,N
1561432875.8,286047000.5,N
1561432895.7,286046998.5,N
1561432915.5,286047001.2,N
1561432935.4,286046998.5,N
1561432955.2,286047001.2,N
1561432975.0,286046998.2,N
1561432975.9,286046998.2,N
1561432995.8,286046997.0,N
1561433015.6,286046996.7,N
1561433035.4,286046999.1,N
1561433055.3,286046998.4,N
1561433075.1,286046999.5,N
1561433095.9,286046999.6,N
1561433115.7,286046997.3,N
1561433135.5,286046997.2,N
1561433155.4,286046997.0,N
1561433175.2,286046999.4,N
1561433195.0,286046998.6,N
1561433195.9,286046998.6,N
1561433215.8,286046999.4,N
1561433235.6,286046998.8,N
1561433255.5,286046999.6,N
1561433275.6,286046999.0,N
1561433295.4,286046998.8,N
1561433315.2,286047000.9,N
1561433335.1,286047000.4,N
1561433336.0,286047000.4,N
1561433355.8,286047000.6,N
1561433375.7,286047000.5,N
1561433395.5,286047000.7,N
1561433415.3,286046998.2,N
1561433435.2,286047000.7,N
1561433455.0,286047000.5,N
1561433475.7,286046999.8,N
1561433495.6,286047002.8,N
1561433515.4,286047000.1,N
1561433535.2,286047000.1,N
1561433555.1,286047000.3,N
1561433556.0,286047000.3,N
1561433575.8,286047002.8,N
1561433595.6,286047001.0,N
1561433615.5,286047000.7,N
1561433635.3,286047000.8,N
1561433655.2,286046998.7,N
1561433675.9,286046999.3,N
1561433695.7,286046998.3,N
1561433715.6,286047000.9,N
1561433735.4,286047001.1,N
1561433755.3,286047000.3,N
1561433775.1,286047000.0,N
1561433776.0,286047000.0,N
1561433795.8,286046999.7,N
1561433815.7,286047000.9,N
1561433835.5,286046998.5,N
1561433855.3,286047000.7,N
1561433875.2,286046998.5,N
1561433895.0,286046998.8,N
1561433895.9,286046998.8,N
1561433915.8,286046998.5,N
1561433935.6,286046998.7,N
1561433955.4,286047001.2,N
1561433975.5,286047001.1,N
1561433995.3,286047000.5,N
1561434015.2,286046998.1,N
1561434035.0,286046998.2,N
1561434035.9,286046998.2,N
1561434055.8,286046998.1,N
1561434075.6,286047001.0,N
1561434095.4,286047000.6,N
1561434115.3,286047000.7,N
1561434135.1,286046999.1,N
1561434155.9,286046998.2,N
1561434175.7,286046999.0,N
1561434195.5,286046998.4,N
1561434215.4,286046998.4,N
1561434235.2,286046998.5,N
1561434255.0,286047000.5,N
1561434255.9,286047000.5,N
1561434275.8,286047000.7,N
1561434295.6,286047000.7,N
1561434315.5,286047000.0,N
1561434335.3,286047002.4,N
1561434355.1,286047002.2,N
1561434375.9,286047002.4,N
1561434395.7,286047001.9,N
1561434415.5,286047002.4,N
1561434435.4,286046999.8,N
1561434455.2,286047000.2,N
1561434475.1,286047002.5,N
1561434476.0,286047002.5,N
1561434495.8,286047002.2,N
1561434515.6,286047003.9,N
1561434535.5,286047001.5,N
1561434555.3,286047001.9,N
1561434575.1,286047001.5,N
1561434595.9,286047001.7,N
1561434615.7,286047002.0,N
1561434635.6,286047001.7,N
1561434655.4,286047002.0,N
1561434675.2,286047002.6,N
1561434695.1,286046999.7,N
1561434696.0,286046999.7,N
1561434715.8,286047000.0,N
1561434735.6,286047000.5,N
1561434755.5,286047000.5,N
1561434775.3,286046998.7,N
1561434795.2,286046998.8,N
1561434815.9,286046996.5,N
1561434835.7,286046998.9,N
1561434855.6,286046999.2,N
1561434875.4,286046996.8,N
1561434895.2,286046996.6,N
1561434915.1,286046996.5,N
1561434916.0,286046996.5,N
1561434935.8,286046996.6,N
1561434955.7,286046997.3,N
1561434975.5,286046999.6,N
1561434995.3,286046996.8,N
1561435015.2,286046997.3,N
1561435035.0,286046996.7,N
1561435035.9,286046996.7,N
1561435055.7,286046996.6,N
1561435075.6,286046999.4,N
1561435095.4,286046999.5,N
1561435115.3,286046998.3,N
1561435135.1,286047000.9,N
1561435136.0,286047000.9,N
1561435155.8,286047000.6,N
1561435175.7,286047000.5,N
1561435195.5,286047001.0,N
